Date String (YYYY-MM-DD hh:mm:ss) UTC,Instrument flags,Ambient pressure (hPa),Sample flow (lpm),Bypass flow (lpm),Sample temperature (°C),Ambient temperature (°C),ASC tube jacket temperature (°C),LED temperature (°C),Box temperature (°C),Sample RH (%),Span deviation,Mass concentration (μg/m³),Mass concentration (μg/m³),Mass concentration (μg/m³)
DateTimeUTC,F1_M11,P_M11,Q1_M11,Q2_M11,T1_M11,T2_M11,T3_M11,T4_M11,T5_M11,U1_M11,ZSPAN_M11,X0_M11,X2_M11,X1_M11
2022-12-21 02:00:00,,0825.9,5.00,0.00,22.5,21.1,00.0,31.4,24.3,09.2,0003.1,0037.94,0014.96,0011.57
2022-12-21 02:01:00,,0825.9,4.98,0.00,22.5,21.1,00.0,31.4,24.2,08.9,0002.3,0038.54,0014.89,0011.50
2022-12-21 02:02:00,,0825.8,5.03,0.00,22.5,21.1,00.0,31.4,24.3,08.7,0002.0,0040.23,0014.97,0011.48
2022-12-21 02:03:00,,0826.1,4.95,0.00,22.5,21.1,00.0,31.4,24.3,08.6,0002.5,0042.08,0015.04,0011.47
2022-12-21 02:04:00,,0825.7,5.03,0.00,22.5,21.1,00.0,31.4,24.3,08.3,0002.6,0042.16,0014.87,0011.37
2022-12-21 02:05:00,,0825.7,4.98,0.00,22.5,21.1,00.0,31.4,24.3,08.1,0002.6,0040.26,0014.55,0011.13
2022-12-21 02:06:00,,0825.7,5.00,0.00,22.5,21.1,00.0,31.4,24.3,08.2,0002.6,0039.56,0014.54,0011.08
2022-12-21 02:07:00,,0825.7,5.03,0.00,22.5,21.1,00.0,31.4,24.4,08.4,0002.8,0039.54,0014.71,0011.20
2022-12-21 02:08:00,,0825.8,4.95,0.00,22.5,21.1,00.0,31.4,24.4,08.6,0002.5,0039.23,0014.96,0011.40
2022-12-21 02:09:00,,0826.0,5.03,0.00,22.5,21.1,00.0,31.4,24.4,09.1,0002.7,0039.92,0015.05,0011.53
2022-12-21 02:10:00,,0825.9,5.01,0.00,22.5,21.1,00.0,31.4,24.3,09.2,0003.4,0039.30,0015.16,0011.63
2022-12-21 02:11:00,,0825.9,4.98,0.00,22.5,21.1,00.0,31.4,24.3,09.2,0004.2,0039.56,0015.23,0011.72
2022-12-21 02:12:00,,0825.9,5.02,0.00,22.5,21.1,00.0,31.4,24.3,09.2,0004.6,0040.84,0015.32,0011.77
2022-12-21 02:13:00,,0825.9,4.98,0.00,22.5,21.1,00.0,31.4,24.3,09.4,0004.5,0040.02,0015.25,0011.74
2022-12-21 02:14:00,,0825.9,5.00,0.00,22.5,21.1,00.0,31.4,24.3,09.4,0004.1,0036.98,0015.04,0011.65
2022-12-21 02:15:00,,0825.9,5.02,0.00,22.5,21.1,00.0,31.4,24.3,09.3,0003.8,0034.90,0015.07,0011.69
2022-12-21 02:16:00,,0825.8,4.96,0.00,22.5,21.1,00.0,31.4,24.3,09.5,0003.5,0035.10,0015.28,0011.90
2022-12-21 02:17:00,,0826.1,5.02,0.00,22.5,21.1,00.0,31.4,24.3,09.6,0003.1,0036.49,0015.35,0011.97
2022-12-21 02:18:00,,0825.8,5.02,0.00,22.5,21.1,00.0,31.3,24.3,09.7,0003.1,0038.61,0015.24,0011.87
2022-12-21 02:19:00,,0825.9,4.95,0.00,22.5,21.1,00.0,31.3,24.3,09.7,0003.3,0039.09,0014.95,0011.66
2022-12-21 02:20:00,,0826.0,5.03,0.00,22.5,21.1,00.0,31.3,24.3,09.7,0002.8,0038.81,0014.72,0011.49
2022-12-21 02:21:00,,0825.9,4.99,0.00,22.5,21.1,00.0,31.3,24.3,09.6,0002.6,0040.77,0014.62,0011.40
2022-12-21 02:22:00,,0825.7,4.99,0.00,22.5,21.1,00.0,31.3,24.3,09.6,0002.3,0041.17,0014.53,0011.30
2022-12-21 02:23:00,,0825.7,5.04,0.00,22.5,21.1,00.0,31.3,24.3,09.6,0002.4,0040.51,0014.42,0011.20
2022-12-21 02:24:00,,0826.0,4.97,0.00,22.5,21.1,00.0,31.3,24.3,09.5,0001.9,0039.48,0014.33,0011.15
2022-12-21 02:25:00,,0826.0,5.01,0.00,22.5,21.1,00.0,31.3,24.3,09.6,0001.7,0039.28,0014.30,0011.12
2022-12-21 02:26:00,,0825.7,5.02,0.00,22.4,21.1,00.0,31.3,24.3,09.6,0001.9,0041.19,0014.25,0011.05
2022-12-21 02:27:00,,0825.7,4.95,0.00,22.5,21.0,00.0,31.3,24.3,09.5,0001.7,0044.26,0014.19,0011.01
2022-12-21 02:28:00,,0825.6,5.04,0.00,22.4,21.0,00.0,31.3,24.3,09.5,0001.7,0045.14,0014.20,0011.01
2022-12-21 02:29:00,,0825.6,5.02,0.00,22.4,21.0,00.0,31.3,24.3,09.5,0001.7,0043.41,0014.17,0011.04
2022-12-21 02:30:00,,0825.7,4.96,0.00,22.4,21.0,00.0,31.3,24.3,09.4,0001.4,0043.12,0014.27,0011.14
2022-12-21 02:31:00,,0825.6,5.03,0.00,22.4,21.0,00.0,31.3,24.3,09.3,0001.8,0042.94,0014.52,0011.31
2022-12-21 02:32:00,,0825.5,4.97,0.00,22.4,21.0,00.0,31.3,24.3,09.3,0002.1,0042.05,0014.64,0011.47
2022-12-21 02:33:00,,0825.5,5.02,0.00,22.4,21.0,00.0,31.3,24.3,09.4,0002.3,0041.61,0014.67,0011.57
2022-12-21 02:34:00,,0825.6,5.02,0.00,22.4,21.0,00.0,31.3,24.2,09.3,0002.2,0042.69,0014.76,0011.71
2022-12-21 02:35:00,,0825.6,4.96,0.00,22.4,21.0,00.0,31.3,24.2,09.3,0002.6,0042.74,0014.78,0011.79
2022-12-21 02:36:00,,0825.5,5.03,0.00,22.4,21.0,00.0,31.3,24.2,09.4,0003.1,0043.00,0014.80,0011.76
2022-12-21 02:37:00,,0825.6,5.00,0.00,22.4,21.0,00.0,31.3,24.2,09.4,0002.6,0042.97,0014.78,0011.73
2022-12-21 02:38:00,,0825.6,4.99,0.00,22.4,21.0,00.0,31.3,24.3,09.4,0002.7,0040.54,0014.74,0011.68
2022-12-21 02:39:00,,0825.6,5.01,0.00,22.4,21.0,00.0,31.3,24.2,09.3,0003.2,0038.33,0014.62,0011.62
2022-12-21 02:40:00,,0825.5,4.97,0.00,22.4,21.0,00.0,31.3,24.2,09.3,0003.7,0038.44,0014.55,0011.57
2022-12-21 02:41:00,,0825.5,5.01,0.00,22.4,21.0,00.0,31.3,24.2,09.4,0003.8,0037.26,0014.46,0011.47
2022-12-21 02:42:00,,0825.6,5.02,0.00,22.4,20.9,00.0,31.3,24.2,09.4,0003.8,0037.05,0014.26,0011.31
2022-12-21 02:43:00,,0825.6,4.96,0.00,22.4,20.9,00.0,31.3,24.2,09.4,0003.7,0036.50,0014.04,0011.13
2022-12-21 02:44:00,,0825.6,5.03,0.00,22.4,20.9,00.0,31.3,24.2,09.4,0003.7,0036.59,0013.95,0010.99
2022-12-21 02:45:00,,0825.6,5.02,0.00,22.4,20.9,00.0,31.2,24.2,09.5,0003.7,0034.83,0013.80,0010.83
2022-12-21 02:46:00,,0825.7,4.95,0.00,22.3,20.9,00.0,31.2,24.1,09.7,0003.7,0035.14,0013.65,0010.68
2022-12-21 02:47:00,,0826.0,5.03,0.00,22.3,20.9,00.0,31.2,24.1,09.8,0003.5,0034.27,0013.49,0010.63
2022-12-21 02:48:00,,0825.8,5.00,0.00,22.3,20.9,00.0,31.2,24.1,09.9,0003.8,0033.14,0013.34,0010.57
2022-12-21 02:49:00,,0825.6,4.97,0.00,22.3,20.9,00.0,31.2,24.1,10.0,0003.8,0032.79,0013.21,0010.50
2022-12-21 02:50:00,,0825.6,5.02,0.00,22.3,20.8,00.0,31.2,24.1,10.1,0003.4,0032.66,0013.13,0010.45
2022-12-21 02:51:00,,0825.6,5.01,0.00,22.3,20.8,00.0,31.2,24.0,09.9,0002.5,0031.78,0013.11,0010.38
2022-12-21 02:52:00,,0825.4,4.97,0.00,22.3,20.8,00.0,31.2,24.0,09.8,0002.3,0031.56,0013.00,0010.31
2022-12-21 02:53:00,,0825.4,5.04,0.00,22.3,20.8,00.0,31.2,24.0,10.2,0001.8,0032.29,0012.79,0010.19
2022-12-21 02:54:00,,0825.4,4.98,0.00,22.3,20.8,00.0,31.2,24.1,10.3,0001.9,0032.45,0012.60,0010.06
2022-12-21 02:55:00,,0825.4,4.99,0.00,22.3,20.8,00.0,31.2,24.1,10.1,0001.8,0032.45,0012.45,0009.97
2022-12-21 02:56:00,,0825.4,5.02,0.00,22.2,20.8,00.0,31.2,24.0,10.0,0002.0,0033.26,0012.40,0009.89
2022-12-21 02:57:00,,0825.3,4.95,0.00,22.2,20.8,00.0,31.2,24.0,10.0,0001.6,0032.74,0012.31,0009.82
2022-12-21 02:58:00,,0825.4,5.03,0.00,22.2,20.8,00.0,31.2,23.9,09.8,0001.3,0033.31,0012.30,0009.80
2022-12-21 02:59:00,,0825.4,5.02,0.00,22.2,20.7,00.0,31.1,23.9,09.7,0002.2,0033.56,0012.44,0009.84
